Weather in Kovalivka

Ukraine / Poltava Region     49°36′16″N   34°42′06″E
temp.,
°C
wind,
m/s
gust,
m/s
humid.,
%
clouds,
%
prec.,
mm/h
press.,
hPa
HPBL,
m
20 january, wed
wed2023:00−17wnw229539 0.0 102221
02:00−17wnw229519 0.0 102321
05:00−18wsw11940 0.0 102420
08:00−18sw12940 0.0 102521
11:00−14ssw22860 0.0 1026233
14:00−13sw228420 0.0 1025328
17:00−16s22918 0.0 102721
20:00−16sse23914 0.0 102823
21 january, thu
thu2123:00−16sse34930 0.0 102868
02:00−17sse36940 0.0 102893
05:00−17sse36920 0.0 1028112
08:00−15sse48880 0.0 1027157
11:00−9s5109064 0.0 1027289
14:00−5ssw5109479 0.0 1024413
17:00−3ssw6119699 0.0 1024508
20:00−1ssw5119599 0.1 1023365
22 january, fri
fri2223:00−1ssw61196100 0.0 1023416
02:000ssw51097100 0.0 1022383
05:000ssw51097100 0.0 1021423
08:00+1ssw5109698 0.0 1021402
11:00+2ssw612100100 0.0 1020462
14:00+3ssw61398100 0.0 1020427
17:00+3ssw61298100 0.0 1019345
20:00+2s61298100 0.0 1019335
23 january, sat
sat2323:00+2ssw61298100 0.0 1018429
02:00+2s51297100 0.0 1018365
05:00+2sse61198100 0.0 1017345
08:00+2s51395100 0.0 1017377
11:00+3s61396100 0.0 1016388
14:00+4s51294100 0.0 1016434
17:00+3sse51290100 0.0 1015357
20:00+4sse61588100 0.0 1015379
24 january, sun
sun2423:00+4s61491100 0.0 1015411
02:00+4s71489100 0.0 1015421
05:00+2sse61489100 0.0 1014369
08:00+3sse71488100 0.0 1014366
11:00+5sse71582100 0.0 1014492
14:00+5sse81481100 0.0 1012449
17:00+3sse71684100 0.0 1011480
20:00+3sse71483100 0.2 1011434